BEIDOU-3 M10 (C30)

Last updated on Sat Aug 15 2026 00:03:26 GMT+0000 (Coordinated Universal Time)

1 43246U 18029B 26225.33746785 -.00000055 00000+0 00000+0 0 9998 2 43246 54.1372 297.9736 0002750 29.1988 330.8897 1.86229010 56948
UTC large
Height (km)
Speed (km/s)
/
Latitude / Longitude
Inclination (degrees)
Orbital Period (minutes)
Azimuth
Elevation
Range (km)
Doppler Factor

Next 0 passes for location: London (51.5072 / 0.1276)

No passes found over London.
BEIDOU-3 M10 (C30)